TimeEST,TemperatureF,Dew PointF,Humidity,Sea Level PressureIn,VisibilityMPH,Wind Direction,Wind SpeedMPH,Gust SpeedMPH,PrecipitationIn,Events,Conditions,WindDirDegrees,DateUTC
12:15 AM,36.3,21.0,54,30.10,10.0,Calm,Calm,-,N/A,,Clear,0,2013-02-19 05:15:00
12:35 AM,34.2,21.0,59,30.10,10.0,Calm,Calm,-,N/A,,Clear,0,2013-02-19 05:35:00
12:55 AM,32.4,21.7,65,30.10,10.0,WSW,3.5,-,N/A,,Clear,240,2013-02-19 05:55:00
1:15 AM,32.4,21.7,65,30.10,10.0,Calm,Calm,-,N/A,,Clear,0,2013-02-19 06:15:00
1:35 AM,32.2,21.9,66,30.10,10.0,Calm,Calm,-,N/A,,Clear,0,2013-02-19 06:35:00
1:55 AM,35.8,21.9,57,30.09,10.0,Calm,Calm,-,N/A,,Clear,0,2013-02-19 06:55:00
2:15 AM,35.1,22.5,60,30.08,10.0,SW,4.6,-,N/A,,Clear,230,2013-02-19 07:15:00
2:35 AM,34.0,22.3,62,30.06,10.0,Calm,Calm,-,N/A,,Clear,0,2013-02-19 07:35:00
2:55 AM,34.5,22.5,61,30.04,10.0,South,4.6,-,N/A,,Clear,170,2013-02-19 07:55:00
3:15 AM,33.6,22.6,64,30.04,10.0,SSW,5.8,-,N/A,,Clear,200,2013-02-19 08:15:00
3:35 AM,35.1,23.4,62,30.03,10.0,SSW,4.6,-,N/A,,Clear,200,2013-02-19 08:35:00
3:55 AM,39.6,23.7,53,30.01,10.0,SSW,9.2,-,N/A,,Clear,210,2013-02-19 08:55:00
4:15 AM,39.9,23.7,52,30.00,10.0,SSW,5.8,-,N/A,,Clear,200,2013-02-19 09:15:00
4:35 AM,40.1,23.4,51,29.99,10.0,SSW,5.8,-,N/A,,Clear,200,2013-02-19 09:35:00
4:55 AM,37.8,23.9,57,30.00,10.0,SSW,6.9,-,N/A,,Clear,200,2013-02-19 09:55:00
5:15 AM,35.6,23.7,62,29.99,10.0,SW,4.6,-,N/A,,Clear,230,2013-02-19 10:15:00
5:35 AM,36.1,23.4,60,29.98,10.0,SSW,3.5,-,N/A,,Clear,200,2013-02-19 10:35:00
5:55 AM,35.8,23.0,60,29.99,10.0,SW,4.6,-,N/A,,Clear,230,2013-02-19 10:55:00
6:15 AM,38.7,24.1,56,29.98,10.0,SW,6.9,-,N/A,,Clear,220,2013-02-19 11:15:00
6:35 AM,39.9,23.9,53,29.97,10.0,SSW,4.6,-,N/A,,Mostly Cloudy,200,2013-02-19 11:35:00
6:55 AM,40.1,24.1,53,29.96,10.0,SSW,8.1,-,N/A,,Overcast,200,2013-02-19 11:55:00
7:15 AM,39.9,27.7,62,29.96,7.0,WSW,11.5,-,N/A,,Unknown,250,2013-02-19 12:15:00
7:35 AM,37.4,32.2,81,29.96,5.0,SW,10.4,-,N/A,Rain,Light Rain,230,2013-02-19 12:35:00
7:55 AM,38.1,33.1,82,29.97,10.0,SSW,15.0,25.3,N/A,,Drizzle,210,2013-02-19 12:55:00
8:15 AM,37.8,33.8,86,29.97,10.0,SSW,12.7,20.7,0.01,Rain,Rain,210,2013-02-19 13:15:00
8:35 AM,37.6,33.4,85,29.97,10.0,SSW,15.0,-,0.01,Rain,Light Rain,200,2013-02-19 13:35:00
8:55 AM,37.4,33.4,86,29.96,7.0,SSW,10.4,-,0.02,Rain,Light Rain,210,2013-02-19 13:55:00
9:15 AM,38.3,34.5,86,29.94,10.0,SSW,17.3,21.9,N/A,Rain,Light Rain,210,2013-02-19 14:15:00
9:35 AM,39.6,35.1,84,29.93,10.0,SW,15.0,21.9,N/A,,Light Drizzle,220,2013-02-19 14:35:00
9:55 AM,39.6,34.9,83,29.92,10.0,SW,10.4,-,N/A,,Overcast,220,2013-02-19 14:55:00
10:15 AM,40.1,35.6,84,29.91,10.0,SSW,6.9,-,N/A,,Drizzle,210,2013-02-19 15:15:00
10:35 AM,41.9,36.9,82,29.90,10.0,SW,8.1,-,N/A,,Overcast,220,2013-02-19 15:35:00
10:55 AM,41.9,36.5,81,29.88,10.0,SSW,11.5,-,N/A,,Drizzle,210,2013-02-19 15:55:00
11:15 AM,42.1,36.7,81,29.87,10.0,SSW,11.5,-,N/A,,Drizzle,210,2013-02-19 16:15:00
11:35 AM,42.6,36.9,80,29.86,10.0,SSW,15.0,20.7,N/A,,Light Drizzle,210,2013-02-19 16:35:00
11:55 AM,43.7,37.6,79,29.85,10.0,SSW,12.7,20.7,N/A,,Overcast,210,2013-02-19 16:55:00
12:15 PM,43.9,37.2,77,29.84,10.0,SSW,12.7,-,0.01,,Overcast,200,2013-02-19 17:15:00
12:35 PM,44.6,37.4,76,29.82,10.0,SSW,15.0,20.7,0.01,,Overcast,200,2013-02-19 17:35:00
12:55 PM,45.7,38.1,75,29.81,10.0,SSW,13.8,19.6,0.01,,Overcast,210,2013-02-19 17:55:00
1:35 PM,49.1,39.4,69,29.77,10.0,SSW,16.1,21.9,N/A,,Overcast,200,2013-02-19 18:35:00
1:55 PM,50.4,39.6,66,29.76,10.0,SW,17.3,20.7,N/A,,Mostly Cloudy,220,2013-02-19 18:55:00
2:15 PM,51.3,39.4,64,29.75,10.0,WSW,18.4,25.3,N/A,,Scattered Clouds,240,2013-02-19 19:15:00
2:35 PM,51.1,39.0,63,29.74,10.0,SW,13.8,23.0,N/A,,Scattered Clouds,220,2013-02-19 19:35:00
2:55 PM,51.8,38.7,61,29.74,10.0,SW,13.8,-,N/A,,Mostly Cloudy,230,2013-02-19 19:55:00
3:15 PM,50.2,38.1,63,29.73,10.0,SW,15.0,-,N/A,,Overcast,230,2013-02-19 20:15:00
3:35 PM,51.1,38.5,62,29.74,10.0,WSW,15.0,18.4,N/A,,Mostly Cloudy,250,2013-02-19 20:35:00
3:55 PM,51.8,38.3,60,29.74,10.0,West,12.7,21.9,N/A,,Mostly Cloudy,270,2013-02-19 20:55:00
4:15 PM,45.3,31.6,59,29.75,10.0,WSW,18.4,34.5,N/A,Rain,Light Rain,250,2013-02-19 21:15:00
4:35 PM,46.0,31.6,57,29.74,10.0,SW,8.1,11.5,N/A,,Scattered Clouds,230,2013-02-19 21:35:00
4:55 PM,48.4,31.8,53,29.76,10.0,WSW,10.4,-,N/A,,Scattered Clouds,240,2013-02-19 21:55:00
5:15 PM,49.1,28.0,44,29.76,10.0,West,13.8,21.9,N/A,,Scattered Clouds,260,2013-02-19 22:15:00
5:35 PM,48.4,26.6,43,29.78,10.0,West,10.4,21.9,N/A,,Clear,270,2013-02-19 22:35:00
5:55 PM,43.9,31.1,61,29.81,10.0,WNW,15.0,26.5,N/A,Rain,Light Rain,300,2013-02-19 22:55:00
6:15 PM,43.9,27.5,53,29.81,10.0,West,12.7,19.6,N/A,,Scattered Clouds,280,2013-02-19 23:15:00
6:35 PM,43.7,24.6,47,29.83,10.0,West,9.2,16.1,N/A,,Clear,280,2013-02-19 23:35:00
7:35 PM,42.3,23.0,47,29.84,10.0,West,5.8,-,N/A,,Clear,280,2013-02-20 00:35:00
7:55 PM,41.9,22.8,47,29.85,10.0,Calm,Calm,-,N/A,,Scattered Clouds,0,2013-02-20 00:55:00
8:15 PM,41.9,21.9,45,29.86,10.0,West,5.8,-,N/A,,Scattered Clouds,260,2013-02-20 01:15:00
8:55 PM,41.4,19.2,41,29.86,10.0,WSW,6.9,-,N/A,,Scattered Clouds,250,2013-02-20 01:55:00
9:15 PM,41.5,16.3,36,29.86,10.0,West,8.1,19.6,N/A,,Clear,260,2013-02-20 02:15:00
9:35 PM,40.8,15.4,36,29.88,10.0,West,4.6,-,N/A,,Scattered Clouds,270,2013-02-20 02:35:00
9:55 PM,41.0,13.1,32,29.89,10.0,West,12.7,24.2,N/A,,Scattered Clouds,260,2013-02-20 02:55:00
10:15 PM,40.1,13.1,33,29.89,10.0,West,12.7,19.6,N/A,,Scattered Clouds,260,2013-02-20 03:15:00
10:35 PM,39.2,13.6,35,29.90,10.0,West,3.5,-,N/A,,Scattered Clouds,260,2013-02-20 03:35:00
10:55 PM,38.7,13.5,36,29.89,10.0,West,8.1,-,N/A,,Mostly Cloudy,260,2013-02-20 03:55:00
11:15 PM,38.5,13.5,36,29.90,10.0,WSW,9.2,18.4,N/A,,Mostly Cloudy,250,2013-02-20 04:15:00
11:35 PM,37.0,14.0,39,29.89,10.0,WSW,3.5,-,N/A,,Scattered Clouds,240,2013-02-20 04:35:00
11:55 PM,36.0,13.5,40,29.89,10.0,WSW,6.9,-,N/A,,Scattered Clouds,250,2013-02-20 04:55:00